Starlink 32425

operational
NORAD ID: 61216 Int'l Des: 2024-171 Owner: SPXS Country: US Constellation: starlink
LEOCIRCULAR

关于 Starlink 32425

正在加载描述...

实时位置

正在加载3D地球...

即将过境

高度历史

Altitude vs Time

uPlot chart will show altitude changes over time

两行轨道根数

1 61216U 24171S 26034.63828641 .00000619 00000-0 33033-4 0 9996
2 61216 53.1599 120.7102 0001077 90.4508 269.6616 15.30186966 77155
Epoch: Feb 3, 2026 • Age: 13 hours

当前状态

高度 478.4 km
速度 7.63 km/s
星下点 40.83°N, 57.68°E
发射日期 Sep 20, 2024
运行时间 1.3 years
类型 internet

技术详情

分类 Payload
质量 730.00 kg
干质量 700.00 kg
总质量 730.00 kg
长度 0.30 m
直径 4.10 m
跨度 29.00 m
形状 Box + pan
制造商 SPXS
平台类型 Starlink V2M
阶段状态 In Orbit
所有者/国家 SPXS/US

大型星座

Loading constellations...